• MPC Preparation (Info)

  • MPEC 2014-F13 : 2014 FF

    The following Minor Planet Electronic Circular may be linked-to from your own Web pages, but must not otherwise be redistributed electronically.

    A form allowing access to any MPEC is at the bottom of this page.


    Read MPEC 2014-F12 Read MPEC 2014-F14


    M.P.E.C. 2014-F13                                Issued 2014 Mar. 21, 22:49 UT
    
         The Minor Planet Electronic Circulars contain information on unusual
             minor planets and routine data on comets.  They are published
       on behalf of Commission 20 of the International Astronomical Union by the
              Minor Planet Center, Smithsonian Astrophysical Observatory,
                              Cambridge, MA 02138, U.S.A.
    
                 Prepared using the Tamkin Foundation Computer Network
    
                                  MPC@CFA.HARVARD.EDU
                URL https://www.minorplanetcenter.net/    ISSN 1523-6714
    
                                        2014 FF
    
    Observations:
         K14F00F* C2014 03 20.29740 10 26 31.08 +05 32 29.7          18.6 VqEF013703
         K14F00F  C2014 03 20.30709 10 26 36.64 +05 33 56.4          18.9 VqEF013703
         K14F00F  C2014 03 20.31679 10 26 42.36 +05 35 22.8          19.0 VqEF013703
         K14F00F  C2014 03 20.32645 10 26 48.04 +05 36 52.0          18.6 VqEF013703
         K14F00F  C2014 03 20.38023 10 27 19.88 +05 44 51.3          18.5 VqEF013703
         K14F00F  C2014 03 20.38655 10 27 23.64 +05 45 46.8          18.9 VqEF013703
         K14F00F  C2014 03 20.39285 10 27 27.44 +05 46 44.5          18.8 VqEF013703
         K14F00F HC2014 03 20.39677 10 27 29.88 +05 47 20.0          18.5 RoEF013291
         K14F00F HC2014 03 20.39708 10 27 30.06 +05 47 22.7          18.5 RoEF013291
         K14F00F HC2014 03 20.39739 10 27 30.25 +05 47 25.7          18.4 RoEF013291
         K14F00F  C2014 03 20.39918 10 27 31.26 +05 47 41.5          19.1 VqEF013703
         K14F00F KC2014 03 20.79860 10 32 06.17 +06 48 45.5          18.5 RqEF013113
         K14F00F KC2014 03 20.80115 10 32 07.84 +06 49 10.2          18.7 RqEF013113
         K14F00F KC2014 03 20.80371 10 32 09.50 +06 49 34.7          18.8 RqEF013113
         K14F00F KC2014 03 20.84461 10 32 36.43 +06 56 07.4          18.4 RvEF013A17
         K14F00F KC2014 03 20.84904 10 32 39.32 +06 56 50.3          18.6 RvEF013A17
         K14F00F KC2014 03 20.85260 10 32 43.06 +06 57 36.0          19.5 VqEF013958
         K14F00F KC2014 03 20.85348 10 32 42.13 +06 57 32.5          18.8 RvEF013A17
         K14F00F KC2014 03 20.85877 10 32 47.02 +06 58 34.7          19.1 VqEF013958
         K14F00F KC2014 03 20.86185 10 32 49.01 +06 59 04.1          19.0 VqEF013958
         K14F00F KC2014 03 20.86611 10 32 49.87 +06 59 42.0          18.9 VqEF013595
         K14F00F KC2014 03 20.86799 10 32 52.98 +07 00 03.5          19.2 VqEF013958
         K14F00F KC2014 03 20.88837 10 33 04.15 +07 03 15.4          18.7 VqEF013595
         K14F00F KC2014 03 20.89600 10 33 09.06 +07 04 29.6          18.9 VqEF013595
         K14F00F KC2014 03 20.98260210 34 03.42 +07 21 46.9          19.2 VqEF013K93
         K14F00F KC2014 03 20.98590610 34 05.55 +07 22 18.9          19.4 VqEF013K93
         K14F00F KC2014 03 20.98920610 34 07.68 +07 22 51.0          19.2 VqEF013K93
         K14F00F KC2014 03 20.99249910 34 09.86 +07 23 22.8          19.3 VqEF013K93
         K14F00F KC2014 03 20.99448610 34 11.16 +07 23 42.2          19.2 VqEF013K93
         K14F00F KC2014 03 21.08934210 35 28.72 +07 36 03.8          19.4 VuEF013H21
         K14F00F KC2014 03 21.09306710 35 31.19 +07 36 40.7          18.9 VuEF013H21
         K14F00F KC2014 03 21.09675710 35 33.66 +07 37 17.4          19.3 VuEF013H21
         K14F00F KC2014 03 21.31374910 37 59.65 +08 13 24.2          19.1 VuEF013H21
         K14F00F KC2014 03 21.31819210 38 02.75 +08 14 08.8                uEF013H21
         K14F00F KC2014 03 21.32255210 38 05.77 +08 14 52.9          19.4 VuEF013H21
    
    Observer details:
    113 Volkssternwarte Drebach, Schoenbrunn.  Observers G. Lehmann, M. Lehmann.
        0.5-m f/4.6 reflector + CCD.
    291 LPL/Spacewatch II.  Observer T. H. Bressi.  1.8-m f/2.7 reflector + CCD.
    595 Farra d'Isonzo.  Observers L. Bittesini, G. Ierman, E. Pettarin, F. Piani.
        Measurer E. Pettarin.  0.61-m f/4.0 reflector + CCD.
    703 Catalina Sky Survey.  Observer S. M. Larson.  Measurers E. J. Christensen,
        A. R. Gibbs, A. D. Grauer, R. E. Hill, J. A. Johnson, R. A. Kowalski,
        S. M. Larson, F. C. Shelly.  0.68-m Schmidt + CCD.
    958 Observatoire de Dax.  Observers P. Dupouy, J. B. de Vanssay.  Measurer
        P. Dupouy.  0.43-m f/2.7 reflector + CCD.
    A17 Guidestar Observatory, Weinheim.  Observers M. Emmerich, S. Melchert.
        0.36-m f/6 Schmidt-Cassegrain + CCD.
    H21 Astronomical Research Observatory, Westfield.  Observer R. Holmes.
        Measurers T. Linder, S. Foglia, L. Buzzi, T. Vorobjov.  0.61-m f/4.5
        astrograph + CCD, 0.81-m f/4.0 astrograph + CCD.
    K93 Sutherland-LCOGT C.  Observers E. J. Christensen, S. M. Larson, T. Lister.
        Measurer T. Lister.  1.0-m f/8 Ritchey-Chretien + CCD.
    
    Orbital elements:
    2014 FF                                                  Earth MOID = 0.0397 AU
    Epoch 2014 May 23.0 TT = JDT 2456800.5                  MPC
    M  14.44285              (2000.0)            P               Q
    n   0.33591814     Peri.   22.67495     -0.92684138     +0.37544836
    a   2.0494960      Node   179.36774     -0.36539047     -0.90082991
    e   0.5031181      Incl.    9.87707     -0.08634154     -0.21804586
    P   2.93           H   24.2           G   0.15           U   7
    Residuals in seconds of arc
    140320 703  0.2-  1.0-    140320 113  0.2+  0.3+    140320 K93  0.1+  0.2-
    140320 703  1.1-  0.6-    140320 113  0.3+  0.3+    140320 K93  0.2-  0.2-
    140320 703  0.1+  0.7-    140320 A17  0.1+  0.3-    140320 K93  0.5-  0.0
    140320 703 (0.8+  2.4+)   140320 A17  0.6+  0.1+    140320 K93  0.0   0.1-
    140320 703  0.6+  0.9+    140320 958  0.0   0.3+    140320 K93  0.0   0.1+
    140320 703  0.0   0.2-    140320 A17  0.3-  0.3-    140321 H21  0.0   0.0
    140320 703  0.1-  1.0+    140320 958  0.2-  0.3-    140321 H21  0.2-  0.0
    140320 291  0.2+  0.1+    140320 958  0.2-  0.6-    140321 H21  0.1-  0.1+
    140320 291  0.1+  0.0     140320 595  0.2+  0.1-    140321 H21  0.0   0.2+
    140320 291  0.1+  0.2+    140320 958  0.1+  0.3-    140321 H21  0.1+  0.2+
    140320 703  0.3-  1.2+    140320 595  0.2+  0.7-    140321 H21  0.2-  0.4+
    140320 113  0.1-  0.1-    140320 595  0.4+  0.1+
    
    Ephemeris:
    2014 FF                  a,e,i = 2.05, 0.50, 10                  q = 1.0184
    Date    TT    R. A. (2000) Decl.     Delta      r     Elong.  Phase     V
    2014 02 19    09 08 55.1 -14 15 43   0.2106  1.1761   150.3    24.6    22.3
    ...
    2014 03 06    09 19 40.4 -11 05 48   0.1247  1.1005   148.7    27.9    21.1
    ...
    2014 03 14    09 42 31.1 -05 10 35   0.08437 1.0685   150.9    26.9    20.2
    ...
    2014 03 20    10 23 29.6 +04 50 09   0.05814 1.0492   156.3    22.4    19.2
    2014 03 21    10 34 20.2 +07 22 49   0.05441 1.0464   157.3    21.5    19.0
    2014 03 22    10 46 55.5 +10 15 29   0.05096 1.0437   158.1    20.9    18.9
    ...
    2014 03 28    12 56 50.4 +32 44 17   0.03979 1.0304   143.7    35.0    18.7
    ...
    2014 04 05    16 46 45.5 +41 44 30   0.05660 1.0201   109.0    68.0    20.4
    ...
    2014 04 20    18 46 48.7 +33 08 09   0.1200  1.0255    96.7    76.6    22.3
    
    A. U. Tomatic                (C) Copyright 2014 MPC           M.P.E.C. 2014-F13
    

    Read MPEC 2014-F12 Read MPEC 2014-F14


    MPEC number:

    Enter an MPEC number in one of the following forms:

    • 1997-B01 (the full form)
    • J97B01 (the packed version of the full form)
    • B01 (the abbreviated form)